Time,TemperatureF,DewpointF,PressureIn,WindDirection,WindDirectionDegrees,WindSpeedMPH,WindSpeedGustMPH,Humidity,HourlyPrecipIn,Conditions,Clouds,dailyrainin,SoftwareType,DateUTC
2013-09-09 00:00:00,50.6,46.6,30.10,North,354,0.0,0.0,86,0.00,,,0.00,Wunderground v.1.15,2013-09-09 04:00:00,
2013-09-09 00:01:00,50.6,46.6,30.10,North,354,0.0,0.0,86,0.00,,,0.00,Wunderground v.1.15,2013-09-09 04:01:00,
2013-09-09 00:04:00,50.6,46.3,30.10,North,354,0.0,0.0,85,0.00,,,0.00,Wunderground v.1.15,2013-09-09 04:04:00,
2013-09-09 00:07:00,50.5,46.2,30.10,North,354,0.0,0.0,85,0.00,,,0.00,Wunderground v.1.15,2013-09-09 04:07:00,
2013-09-09 00:08:00,50.4,46.4,30.10,North,354,0.0,0.0,86,0.00,,,0.00,Wunderground v.1.15,2013-09-09 04:08:00,
2013-09-09 00:11:00,50.3,46.3,30.10,North,354,0.0,0.0,86,0.00,,,0.00,Wunderground v.1.15,2013-09-09 04:11:00,
2013-09-09 00:17:00,50.0,46.0,30.11,North,354,0.0,0.0,86,0.00,,,0.00,Wunderground v.1.15,2013-09-09 04:17:00,
2013-09-09 00:22:00,50.0,46.3,30.11,North,354,0.0,0.0,87,0.00,,,0.00,Wunderground v.1.15,2013-09-09 04:22:00,
2013-09-09 00:28:00,50.0,46.3,30.11,North,354,0.0,0.0,87,0.00,,,0.00,Wunderground v.1.15,2013-09-09 04:28:00,
2013-09-09 00:34:00,49.8,46.1,30.11,North,354,0.0,0.0,87,0.00,,,0.00,Wunderground v.1.15,2013-09-09 04:34:00,
2013-09-09 00:39:00,49.5,45.8,30.11,North,354,0.0,0.0,87,0.00,,,0.00,Wunderground v.1.15,2013-09-09 04:39:00,
2013-09-09 00:45:00,49.0,45.9,30.11,North,354,0.0,0.0,89,0.00,,,0.00,Wunderground v.1.15,2013-09-09 04:45:00,
2013-09-09 00:51:00,48.6,45.5,30.11,North,354,0.0,0.0,89,0.00,,,0.00,Wunderground v.1.15,2013-09-09 04:51:00,
2013-09-09 00:57:00,48.4,45.6,30.11,North,354,0.0,0.0,90,0.00,,,0.00,Wunderground v.1.15,2013-09-09 04:57:00,
2013-09-09 01:02:00,48.0,45.2,30.11,North,354,0.0,0.0,90,0.00,,,0.00,Wunderground v.1.15,2013-09-09 05:02:00,
2013-09-09 01:08:00,47.7,44.9,30.11,North,354,0.0,0.0,90,0.00,,,0.00,Wunderground v.1.15,2013-09-09 05:08:00,
2013-09-09 01:13:00,47.3,44.8,30.11,North,354,0.0,0.0,91,0.00,,,0.00,Wunderground v.1.15,2013-09-09 05:13:00,
2013-09-09 01:19:00,47.1,44.9,30.11,North,354,0.0,0.0,92,0.00,,,0.00,Wunderground v.1.15,2013-09-09 05:19:00,
2013-09-09 01:24:00,46.9,44.7,30.11,North,354,0.0,0.0,92,0.00,,,0.00,Wunderground v.1.15,2013-09-09 05:24:00,
2013-09-09 01:30:00,46.7,44.5,30.11,North,354,0.0,0.0,92,0.00,,,0.00,Wunderground v.1.15,2013-09-09 05:30:00,
2013-09-09 01:36:00,46.7,44.8,30.11,North,354,0.0,0.0,93,0.00,,,0.00,Wunderground v.1.15,2013-09-09 05:36:00,
2013-09-09 01:42:00,47.0,45.1,30.11,North,354,0.0,0.0,93,0.00,,,0.00,Wunderground v.1.15,2013-09-09 05:42:00,
2013-09-09 01:48:00,46.9,45.0,30.10,North,354,0.0,0.0,93,0.00,,,0.00,Wunderground v.1.15,2013-09-09 05:48:00,
2013-09-09 01:53:00,47.1,45.2,30.11,North,354,0.0,0.0,93,0.00,,,0.00,Wunderground v.1.15,2013-09-09 05:53:00,
2013-09-09 01:58:00,47.1,45.2,30.11,North,354,0.0,0.0,93,0.00,,,0.00,Wunderground v.1.15,2013-09-09 05:58:00,
2013-09-09 02:04:00,47.2,45.3,30.11,North,354,0.0,0.0,93,0.00,,,0.00,Wunderground v.1.15,2013-09-09 06:04:00,
2013-09-09 02:10:00,47.1,44.9,30.11,North,354,0.0,0.0,92,0.00,,,0.00,Wunderground v.1.15,2013-09-09 06:10:00,
2013-09-09 02:15:00,47.1,45.2,30.11,North,354,0.0,0.0,93,0.00,,,0.00,Wunderground v.1.15,2013-09-09 06:15:00,
2013-09-09 02:21:00,47.0,44.8,30.11,North,354,0.0,0.0,92,0.00,,,0.00,Wunderground v.1.15,2013-09-09 06:21:00,
2013-09-09 02:27:00,46.9,44.7,30.11,North,354,0.0,0.0,92,0.00,,,0.00,Wunderground v.1.15,2013-09-09 06:27:00,
2013-09-09 02:32:00,46.7,44.5,30.12,North,354,0.0,0.0,92,0.00,,,0.00,Wunderground v.1.15,2013-09-09 06:32:00,
2013-09-09 02:38:00,46.5,44.6,30.11,North,354,0.0,0.0,93,0.00,,,0.00,Wunderground v.1.15,2013-09-09 06:38:00,
2013-09-09 02:43:00,46.5,44.6,30.11,North,354,0.0,0.0,93,0.00,,,0.00,Wunderground v.1.15,2013-09-09 06:43:00,
2013-09-09 02:49:00,46.4,44.5,30.11,North,354,0.0,0.0,93,0.00,,,0.00,Wunderground v.1.15,2013-09-09 06:49:00,
2013-09-09 02:54:00,46.6,45.0,30.11,North,354,0.0,0.0,94,0.00,,,0.00,Wunderground v.1.15,2013-09-09 06:54:00,
2013-09-09 02:59:00,46.7,44.8,30.11,North,354,0.0,0.0,93,0.00,,,0.00,Wunderground v.1.15,2013-09-09 06:59:00,
2013-09-09 03:05:00,46.6,44.7,30.11,North,354,0.0,0.0,93,0.00,,,0.00,Wunderground v.1.15,2013-09-09 07:05:00,
2013-09-09 03:10:00,46.5,44.6,30.11,North,354,0.0,0.0,93,0.00,,,0.00,Wunderground v.1.15,2013-09-09 07:10:00,
2013-09-09 03:16:00,46.4,44.5,30.11,North,354,0.0,0.0,93,0.00,,,0.00,Wunderground v.1.15,2013-09-09 07:16:00,
2013-09-09 03:22:00,46.4,44.5,30.11,North,354,0.0,0.0,93,0.00,,,0.00,Wunderground v.1.15,2013-09-09 07:22:00,
2013-09-09 03:28:00,46.3,44.7,30.11,North,354,0.0,0.0,94,0.00,,,0.00,Wunderground v.1.15,2013-09-09 07:28:00,
2013-09-09 03:33:00,46.3,44.7,30.11,North,354,0.0,0.0,94,0.00,,,0.00,Wunderground v.1.15,2013-09-09 07:33:00,
2013-09-09 03:39:00,46.4,44.8,30.11,North,354,0.0,0.0,94,0.00,,,0.00,Wunderground v.1.15,2013-09-09 07:39:00,
2013-09-09 03:44:00,46.4,44.8,30.11,North,354,0.0,0.0,94,0.00,,,0.00,Wunderground v.1.15,2013-09-09 07:44:00,
2013-09-09 03:50:00,46.5,44.6,30.12,North,354,0.0,0.0,93,0.00,,,0.00,Wunderground v.1.15,2013-09-09 07:50:00,
2013-09-09 03:55:00,46.3,44.4,30.11,North,354,0.0,0.0,93,0.00,,,0.00,Wunderground v.1.15,2013-09-09 07:55:00,
2013-09-09 04:01:00,45.9,44.0,30.11,North,354,0.0,0.0,93,0.00,,,0.00,Wunderground v.1.15,2013-09-09 08:01:00,
2013-09-09 04:06:00,45.7,43.8,30.11,North,354,0.0,0.0,93,0.00,,,0.00,Wunderground v.1.15,2013-09-09 08:06:00,
2013-09-09 04:12:00,45.4,43.8,30.12,North,354,0.0,0.0,94,0.00,,,0.00,Wunderground v.1.15,2013-09-09 08:12:00,
2013-09-09 04:18:00,45.5,43.9,30.11,NNW,338,0.0,0.0,94,0.00,,,0.00,Wunderground v.1.15,2013-09-09 08:18:00,
2013-09-09 04:23:00,45.6,44.0,30.11,NNW,338,0.0,0.0,94,0.00,,,0.00,Wunderground v.1.15,2013-09-09 08:23:00,
2013-09-09 04:28:00,45.6,44.0,30.11,NNW,338,0.0,0.0,94,0.00,,,0.00,Wunderground v.1.15,2013-09-09 08:28:00,
2013-09-09 04:33:00,45.9,44.3,30.11,NNW,338,0.0,0.0,94,0.00,,,0.00,Wunderground v.1.15,2013-09-09 08:33:00,
2013-09-09 04:38:00,46.1,44.2,30.11,NNW,338,0.0,0.0,93,0.00,,,0.00,Wunderground v.1.15,2013-09-09 08:38:00,
2013-09-09 04:44:00,46.2,44.3,30.12,NNW,340,0.0,0.0,93,0.00,,,0.00,Wunderground v.1.15,2013-09-09 08:44:00,
2013-09-09 04:50:00,46.8,44.6,30.12,NNE,25,0.0,0.0,92,0.00,,,0.00,Wunderground v.1.15,2013-09-09 08:50:00,
2013-09-09 04:55:00,47.1,44.6,30.12,SE,134,0.0,0.0,91,0.00,,,0.00,Wunderground v.1.15,2013-09-09 08:55:00,
2013-09-09 05:00:00,47.4,44.6,30.11,SSE,159,0.0,0.0,90,0.00,,,0.00,Wunderground v.1.15,2013-09-09 09:00:00,
2013-09-09 05:06:00,47.4,44.6,30.12,SSE,159,0.0,0.0,90,0.00,,,0.00,Wunderground v.1.15,2013-09-09 09:06:00,
2013-09-09 05:11:00,47.4,44.6,30.11,SSE,159,0.0,0.0,90,0.00,,,0.00,Wunderground v.1.15,2013-09-09 09:11:00,
2013-09-09 05:17:00,47.4,44.6,30.12,SSE,155,0.0,0.0,90,0.00,,,0.00,Wunderground v.1.15,2013-09-09 09:17:00,
2013-09-09 05:22:00,47.3,44.5,30.12,SSE,155,0.0,0.0,90,0.00,,,0.00,Wunderground v.1.15,2013-09-09 09:22:00,
2013-09-09 05:28:00,47.3,44.2,30.12,SSE,155,0.0,0.0,89,0.00,,,0.00,Wunderground v.1.15,2013-09-09 09:28:00,
2013-09-09 05:34:00,47.1,44.0,30.12,SSE,155,0.0,0.0,89,0.00,,,0.00,Wunderground v.1.15,2013-09-09 09:34:00,
2013-09-09 05:39:00,46.9,44.1,30.12,SSE,155,0.0,0.0,90,0.00,,,0.00,Wunderground v.1.15,2013-09-09 09:39:00,
2013-09-09 05:45:00,46.7,43.9,30.11,SSE,155,0.0,0.0,90,0.00,,,0.00,Wunderground v.1.15,2013-09-09 09:45:00,
2013-09-09 05:51:00,46.3,43.5,30.11,SSE,155,0.0,0.0,90,0.00,,,0.00,Wunderground v.1.15,2013-09-09 09:51:00,
2013-09-09 05:56:00,46.0,43.5,30.11,SSE,155,0.0,0.0,91,0.00,,,0.00,Wunderground v.1.15,2013-09-09 09:56:00,
2013-09-09 06:02:00,46.0,43.5,30.11,SSE,155,0.0,0.0,91,0.00,,,0.00,Wunderground v.1.15,2013-09-09 10:02:00,
2013-09-09 06:07:00,45.9,43.4,30.11,SSE,155,0.0,0.0,91,0.00,,,0.00,Wunderground v.1.15,2013-09-09 10:07:00,
2013-09-09 06:12:00,45.7,43.2,30.11,SSE,155,0.0,0.0,91,0.00,,,0.00,Wunderground v.1.15,2013-09-09 10:12:00,
2013-09-09 06:17:00,45.5,43.3,30.11,SSE,155,0.0,0.0,92,0.00,,,0.00,Wunderground v.1.15,2013-09-09 10:17:00,
2013-09-09 06:23:00,45.3,43.1,30.12,SSE,155,0.0,0.0,92,0.00,,,0.00,Wunderground v.1.15,2013-09-09 10:23:00,
2013-09-09 06:28:00,45.0,42.8,30.12,SSE,155,0.0,0.0,92,0.00,,,0.00,Wunderground v.1.15,2013-09-09 10:28:00,
2013-09-09 06:34:00,45.2,43.3,30.12,SSE,155,0.0,0.0,93,0.00,,,0.00,Wunderground v.1.15,2013-09-09 10:34:00,
2013-09-09 06:39:00,45.4,43.5,30.12,SSE,155,0.0,0.0,93,0.00,,,0.00,Wunderground v.1.15,2013-09-09 10:39:00,
2013-09-09 06:44:00,45.3,43.1,30.12,SSE,155,0.0,0.0,92,0.00,,,0.00,Wunderground v.1.15,2013-09-09 10:44:00,
2013-09-09 06:49:00,45.3,43.4,30.12,SSE,155,0.0,0.0,93,0.00,,,0.00,Wunderground v.1.15,2013-09-09 10:49:00,
2013-09-09 06:55:00,45.3,43.4,30.13,SSE,155,0.0,0.0,93,0.00,,,0.00,Wunderground v.1.15,2013-09-09 10:55:00,
2013-09-09 07:01:00,45.3,43.4,30.13,SSE,155,0.0,0.0,93,0.00,,,0.00,Wunderground v.1.15,2013-09-09 11:01:00,
2013-09-09 07:06:00,45.3,43.4,30.13,SSE,155,0.0,0.0,93,0.00,,,0.00,Wunderground v.1.15,2013-09-09 11:06:00,
2013-09-09 07:12:00,45.6,44.0,30.12,SSE,155,0.0,0.0,94,0.00,,,0.00,Wunderground v.1.15,2013-09-09 11:12:00,
2013-09-09 07:17:00,46.0,44.4,30.12,SSE,155,0.0,0.0,94,0.00,,,0.00,Wunderground v.1.15,2013-09-09 11:17:00,
2013-09-09 07:23:00,46.4,44.5,30.12,SSE,155,0.0,0.0,93,0.00,,,0.00,Wunderground v.1.15,2013-09-09 11:23:00,
2013-09-09 07:28:00,46.6,44.7,30.11,SSE,155,0.0,0.0,93,0.00,,,0.00,Wunderground v.1.15,2013-09-09 11:28:00,
2013-09-09 07:34:00,46.8,44.9,30.11,SSE,155,0.0,0.0,93,0.00,,,0.00,Wunderground v.1.15,2013-09-09 11:34:00,
2013-09-09 07:39:00,47.1,44.9,30.11,SSE,155,0.0,0.0,92,0.00,,,0.00,Wunderground v.1.15,2013-09-09 11:39:00,
2013-09-09 07:44:00,47.4,45.2,30.11,SSE,155,0.0,0.0,92,0.00,,,0.00,Wunderground v.1.15,2013-09-09 11:44:00,
2013-09-09 07:50:00,47.7,45.2,30.11,SSE,155,0.0,0.0,91,0.00,,,0.00,Wunderground v.1.15,2013-09-09 11:50:00,
2013-09-09 07:56:00,48.2,45.4,30.11,SSE,155,0.0,0.0,90,0.00,,,0.00,Wunderground v.1.15,2013-09-09 11:56:00,
2013-09-09 08:01:00,48.6,45.8,30.11,SSE,155,0.0,0.0,90,0.00,,,0.00,Wunderground v.1.15,2013-09-09 12:01:00,
2013-09-09 08:07:00,49.1,46.0,30.11,SSE,155,0.0,0.0,89,0.00,,,0.00,Wunderground v.1.15,2013-09-09 12:07:00,
2013-09-09 08:13:00,49.8,46.1,30.11,SSE,155,0.0,0.0,87,0.00,,,0.00,Wunderground v.1.15,2013-09-09 12:13:00,
2013-09-09 08:18:00,50.3,46.3,30.11,SSE,160,0.0,0.0,86,0.00,,,0.00,Wunderground v.1.15,2013-09-09 12:18:00,
2013-09-09 08:24:00,50.8,46.5,30.11,South,176,0.0,0.0,85,0.00,,,0.00,Wunderground v.1.15,2013-09-09 12:24:00,
2013-09-09 08:29:00,51.3,46.9,30.11,SSW,195,0.0,2.0,85,0.00,,,0.00,Wunderground v.1.15,2013-09-09 12:29:00,
2013-09-09 08:34:00,51.8,47.1,30.11,SSE,160,0.0,2.0,84,0.00,,,0.00,Wunderground v.1.15,2013-09-09 12:34:00,
2013-09-09 08:40:00,52.3,47.0,30.11,SSE,158,0.0,2.0,82,0.00,,,0.00,Wunderground v.1.15,2013-09-09 12:40:00,
2013-09-09 08:46:00,53.0,48.0,30.11,SE,142,0.0,1.0,83,0.00,,,0.00,Wunderground v.1.15,2013-09-09 12:46:00,
2013-09-09 08:52:00,53.4,47.0,30.11,SSE,162,1.0,1.0,79,0.00,,,0.00,Wunderground v.1.15,2013-09-09 12:52:00,
2013-09-09 08:58:00,53.8,46.8,30.11,SE,133,1.0,2.0,77,0.00,,,0.00,Wunderground v.1.15,2013-09-09 12:58:00,
2013-09-09 09:04:00,54.1,46.7,30.11,SE,145,0.0,2.0,76,0.00,,,0.00,Wunderground v.1.15,2013-09-09 13:04:00,
2013-09-09 09:09:00,54.4,47.0,30.11,SSE,162,1.0,2.0,76,0.00,,,0.00,Wunderground v.1.15,2013-09-09 13:09:00,
2013-09-09 09:14:00,54.7,46.9,30.11,SSE,152,1.0,2.0,75,0.00,,,0.00,Wunderground v.1.15,2013-09-09 13:14:00,
2013-09-09 09:20:00,55.1,47.0,30.11,South,190,1.0,1.0,74,0.00,,,0.00,Wunderground v.1.15,2013-09-09 13:20:00,
2013-09-09 09:25:00,55.5,47.0,30.11,SSE,165,0.0,1.0,73,0.00,,,0.00,Wunderground v.1.15,2013-09-09 13:25:00,
2013-09-09 09:31:00,55.9,47.0,30.10,SSE,155,0.0,0.0,72,0.00,,,0.00,Wunderground v.1.15,2013-09-09 13:31:00,
2013-09-09 09:36:00,56.4,47.1,30.11,SE,139,1.0,2.0,71,0.00,,,0.00,Wunderground v.1.15,2013-09-09 13:36:00,
2013-09-09 09:42:00,57.4,46.9,30.10,SE,145,1.0,2.0,68,0.00,,,0.00,Wunderground v.1.15,2013-09-09 13:42:00,
2013-09-09 09:48:00,58.5,47.2,30.10,SSE,148,2.0,4.0,66,0.00,,,0.00,Wunderground v.1.15,2013-09-09 13:48:00,
2013-09-09 09:53:00,59.6,47.8,30.10,WSW,240,1.0,2.0,65,0.00,,,0.00,Wunderground v.1.15,2013-09-09 13:53:00,
2013-09-09 09:59:00,60.4,47.7,30.10,East,93,1.0,4.0,63,0.00,,,0.00,Wunderground v.1.15,2013-09-09 13:59:00,
2013-09-09 10:04:00,61.6,48.9,30.09,SSE,166,1.0,3.0,63,0.00,,,0.00,Wunderground v.1.15,2013-09-09 14:04:00,
2013-09-09 10:10:00,62.2,48.6,30.10,South,185,1.0,1.0,61,0.00,,,0.00,Wunderground v.1.15,2013-09-09 14:10:00,
2013-09-09 10:16:00,63.0,48.9,30.09,SE,138,1.0,2.0,60,0.00,,,0.00,Wunderground v.1.15,2013-09-09 14:16:00,
2013-09-09 10:21:00,63.5,48.9,30.10,SW,232,1.0,2.0,59,0.00,,,0.00,Wunderground v.1.15,2013-09-09 14:21:00,
2013-09-09 10:27:00,63.9,49.3,30.10,SSE,165,1.0,2.0,59,0.00,,,0.00,Wunderground v.1.15,2013-09-09 14:27:00,
2013-09-09 10:32:00,64.8,49.2,30.10,SE,129,1.0,1.0,57,0.00,,,0.00,Wunderground v.1.15,2013-09-09 14:32:00,
2013-09-09 10:38:00,65.6,50.4,30.10,SSE,151,0.0,1.0,58,0.00,,,0.00,Wunderground v.1.15,2013-09-09 14:38:00,
2013-09-09 10:43:00,66.2,50.0,30.09,SE,141,1.0,3.0,56,0.00,,,0.00,Wunderground v.1.15,2013-09-09 14:43:00,
2013-09-09 10:48:00,66.5,50.3,30.10,WSW,241,1.0,3.0,56,0.00,,,0.00,Wunderground v.1.15,2013-09-09 14:48:00,
2013-09-09 10:54:00,67.0,50.3,30.09,South,172,1.0,3.0,55,0.00,,,0.00,Wunderground v.1.15,2013-09-09 14:54:00,
2013-09-09 11:00:00,67.1,50.4,30.09,West,269,1.0,1.0,55,0.00,,,0.00,Wunderground v.1.15,2013-09-09 15:00:00,
2013-09-09 11:06:00,67.0,50.8,30.09,South,176,2.0,2.0,56,0.00,,,0.00,Wunderground v.1.15,2013-09-09 15:06:00,
2013-09-09 11:11:00,67.8,52.0,30.08,SSE,155,2.0,3.0,57,0.00,,,0.00,Wunderground v.1.15,2013-09-09 15:11:00,
2013-09-09 11:16:00,67.8,51.5,30.08,SSE,148,2.0,4.0,56,0.00,,,0.00,Wunderground v.1.15,2013-09-09 15:16:00,
2013-09-09 11:21:00,67.9,51.6,30.08,SSW,208,2.0,2.0,56,0.00,,,0.00,Wunderground v.1.15,2013-09-09 15:21:00,
2013-09-09 11:26:00,67.7,51.4,30.08,SW,217,1.0,2.0,56,0.00,,,0.00,Wunderground v.1.15,2013-09-09 15:26:00,
2013-09-09 11:32:00,67.8,52.5,30.08,SW,233,1.0,1.0,58,0.00,,,0.00,Wunderground v.1.15,2013-09-09 15:32:00,
2013-09-09 11:37:00,68.1,52.3,30.08,South,174,1.0,2.0,57,0.00,,,0.00,Wunderground v.1.15,2013-09-09 15:37:00,
2013-09-09 11:43:00,68.7,52.8,30.07,SE,135,1.0,3.0,57,0.00,,,0.00,Wunderground v.1.15,2013-09-09 15:43:00,
2013-09-09 11:48:00,69.5,52.6,30.07,SSW,198,1.0,3.0,55,0.00,,,0.00,Wunderground v.1.15,2013-09-09 15:48:00,
2013-09-09 11:54:00,69.6,53.7,30.07,SSE,148,1.0,4.0,57,0.00,,,0.00,Wunderground v.1.15,2013-09-09 15:54:00,
2013-09-09 12:00:00,69.5,52.6,30.07,SE,143,2.0,3.0,55,0.00,,,0.00,Wunderground v.1.15,2013-09-09 16:00:00,
2013-09-09 12:05:00,70.1,53.2,30.07,SSW,208,2.0,4.0,55,0.00,,,0.00,Wunderground v.1.15,2013-09-09 16:05:00,
2013-09-09 12:11:00,70.7,54.2,30.07,South,181,2.0,3.0,56,0.00,,,0.00,Wunderground v.1.15,2013-09-09 16:11:00,
2013-09-09 12:17:00,71.1,54.6,30.07,South,190,1.0,5.0,56,0.00,,,0.00,Wunderground v.1.15,2013-09-09 16:17:00,
2013-09-09 12:23:00,71.1,54.6,30.07,South,172,2.0,4.0,56,0.00,,,0.00,Wunderground v.1.15,2013-09-09 16:23:00,
2013-09-09 12:28:00,71.0,55.5,30.07,SSW,205,2.0,4.0,58,0.00,,,0.00,Wunderground v.1.15,2013-09-09 16:28:00,
2013-09-09 12:34:00,71.7,55.2,30.07,WSW,240,2.0,4.0,56,0.00,,,0.00,Wunderground v.1.15,2013-09-09 16:34:00,
2013-09-09 12:39:00,71.6,55.6,30.07,SSW,210,2.0,6.0,57,0.00,,,0.00,Wunderground v.1.15,2013-09-09 16:39:00,
2013-09-09 12:45:00,72.2,55.6,30.07,South,181,2.0,6.0,56,0.00,,,0.00,Wunderground v.1.15,2013-09-09 16:45:00,
2013-09-09 12:51:00,72.0,55.4,30.07,SSE,162,2.0,2.0,56,0.00,,,0.00,Wunderground v.1.15,2013-09-09 16:51:00,
2013-09-09 12:57:00,72.2,55.6,30.07,SE,143,3.0,5.0,56,0.00,,,0.00,Wunderground v.1.15,2013-09-09 16:57:00,
2013-09-09 13:02:00,71.8,55.7,30.07,SE,143,2.0,2.0,57,0.00,,,0.00,Wunderground v.1.15,2013-09-09 17:02:00,
2013-09-09 13:08:00,72.3,56.2,30.06,SE,131,3.0,10.0,57,0.00,,,0.00,Wunderground v.1.15,2013-09-09 17:08:00,
2013-09-09 13:14:00,72.8,56.2,30.07,SSE,167,3.0,5.0,56,0.00,,,0.00,Wunderground v.1.15,2013-09-09 17:14:00,
2013-09-09 13:19:00,72.9,56.3,30.07,SSE,155,3.0,6.0,56,0.00,,,0.00,Wunderground v.1.15,2013-09-09 17:19:00,
2013-09-09 13:25:00,72.8,56.7,30.07,South,188,3.0,6.0,57,0.00,,,0.00,Wunderground v.1.15,2013-09-09 17:25:00,
2013-09-09 13:30:00,72.9,56.3,30.06,SW,226,2.0,4.0,56,0.00,,,0.00,Wunderground v.1.15,2013-09-09 17:30:00,
2013-09-09 13:36:00,72.5,55.9,30.06,ESE,121,3.0,6.0,56,0.00,,,0.00,Wunderground v.1.15,2013-09-09 17:36:00,
2013-09-09 13:41:00,72.3,56.2,30.06,ESE,105,3.0,3.0,57,0.00,,,0.00,Wunderground v.1.15,2013-09-09 17:41:00,
2013-09-09 13:47:00,72.8,55.7,30.06,SSE,148,2.0,4.0,55,0.00,,,0.00,Wunderground v.1.15,2013-09-09 17:47:00,
2013-09-09 13:52:00,73.0,56.9,30.05,SE,141,2.0,2.0,57,0.00,,,0.00,Wunderground v.1.15,2013-09-09 17:52:00,
2013-09-09 13:58:00,73.3,57.1,30.05,South,176,1.0,2.0,57,0.00,,,0.00,Wunderground v.1.15,2013-09-09 17:58:00,
2013-09-09 14:03:00,73.3,57.1,30.05,SSE,163,2.0,6.0,57,0.00,,,0.00,Wunderground v.1.15,2013-09-09 18:03:00,
2013-09-09 14:08:00,73.2,57.1,30.05,SSW,210,1.0,6.0,57,0.00,,,0.00,Wunderground v.1.15,2013-09-09 18:08:00,
2013-09-09 14:14:00,72.9,56.3,30.05,SE,139,1.0,2.0,56,0.00,,,0.00,Wunderground v.1.15,2013-09-09 18:14:00,
2013-09-09 14:20:00,72.7,56.6,30.05,SW,233,2.0,2.0,57,0.00,,,0.00,Wunderground v.1.15,2013-09-09 18:20:00,
2013-09-09 14:25:00,72.6,56.5,30.05,SSE,148,1.0,4.0,57,0.00,,,0.00,Wunderground v.1.15,2013-09-09 18:25:00,
2013-09-09 14:30:00,72.5,56.9,30.04,South,179,1.0,1.0,58,0.00,,,0.00,Wunderground v.1.15,2013-09-09 18:30:00,
2013-09-09 14:36:00,72.5,55.9,30.04,WNW,297,1.0,2.0,56,0.00,,,0.00,Wunderground v.1.15,2013-09-09 18:36:00,
2013-09-09 14:41:00,72.4,56.8,30.04,SE,134,1.0,1.0,58,0.00,,,0.00,Wunderground v.1.15,2013-09-09 18:41:00,
2013-09-09 14:46:00,72.7,56.6,30.04,WSW,239,1.0,3.0,57,0.00,,,0.00,Wunderground v.1.15,2013-09-09 18:46:00,
2013-09-09 14:51:00,72.6,56.5,30.04,SW,225,1.0,1.0,57,0.00,,,0.00,Wunderground v.1.15,2013-09-09 18:51:00,
2013-09-09 14:56:00,72.6,57.0,30.03,SSW,195,1.0,3.0,58,0.00,,,0.00,Wunderground v.1.15,2013-09-09 18:56:00,
2013-09-09 15:02:00,72.8,57.2,30.03,SE,146,0.0,1.0,58,0.00,,,0.00,Wunderground v.1.15,2013-09-09 19:02:00,
2013-09-09 15:07:00,73.1,57.0,30.03,SE,134,0.0,2.0,57,0.00,,,0.00,Wunderground v.1.15,2013-09-09 19:07:00,
2013-09-09 15:12:00,73.2,57.1,30.03,SSW,193,0.0,0.0,57,0.00,,,0.00,Wunderground v.1.15,2013-09-09 19:12:00,
2013-09-09 15:18:00,73.5,57.3,30.03,SSW,198,0.0,2.0,57,0.00,,,0.00,Wunderground v.1.15,2013-09-09 19:18:00,
2013-09-09 15:23:00,73.1,57.0,30.02,South,191,1.0,2.0,57,0.00,,,0.00,Wunderground v.1.15,2013-09-09 19:23:00,
2013-09-09 15:28:00,72.9,57.3,30.02,WSW,240,1.0,3.0,58,0.00,,,0.00,Wunderground v.1.15,2013-09-09 19:28:00,
2013-09-09 15:33:00,73.2,58.0,30.02,WSW,244,1.0,1.0,59,0.00,,,0.00,Wunderground v.1.15,2013-09-09 19:33:00,
2013-09-09 15:38:00,73.6,58.4,30.02,WSW,238,0.0,1.0,59,0.00,,,0.00,Wunderground v.1.15,2013-09-09 19:38:00,
2013-09-09 15:44:00,73.6,57.4,30.01,South,174,0.0,2.0,57,0.00,,,0.00,Wunderground v.1.15,2013-09-09 19:44:00,
2013-09-09 15:49:00,73.5,57.3,30.01,SSW,197,1.0,2.0,57,0.00,,,0.00,Wunderground v.1.15,2013-09-09 19:49:00,
2013-09-09 15:55:00,73.5,58.3,30.01,NW,316,0.0,1.0,59,0.00,,,0.00,Wunderground v.1.15,2013-09-09 19:55:00,
2013-09-09 16:00:00,73.4,58.2,30.01,SSW,203,0.0,0.0,59,0.00,,,0.00,Wunderground v.1.15,2013-09-09 20:00:00,
2013-09-09 16:06:00,73.5,58.3,30.01,SE,143,0.0,1.0,59,0.00,,,0.00,Wunderground v.1.15,2013-09-09 20:06:00,
2013-09-09 16:11:00,73.6,58.4,30.01,ESE,120,0.0,0.0,59,0.00,,,0.00,Wunderground v.1.15,2013-09-09 20:11:00,
2013-09-09 16:17:00,73.6,58.4,30.01,SSW,200,0.0,1.0,59,0.00,,,0.00,Wunderground v.1.15,2013-09-09 20:17:00,
2013-09-09 16:22:00,73.3,58.6,30.01,South,191,0.0,0.0,60,0.00,,,0.00,Wunderground v.1.15,2013-09-09 20:22:00,
2013-09-09 16:27:00,73.4,58.7,30.01,South,191,0.0,0.0,60,0.00,,,0.00,Wunderground v.1.15,2013-09-09 20:27:00,
2013-09-09 16:32:00,73.5,58.8,30.01,South,191,0.0,0.0,60,0.00,,,0.00,Wunderground v.1.15,2013-09-09 20:32:00,
2013-09-09 16:38:00,73.5,58.3,30.00,NNW,347,0.0,1.0,59,0.00,,,0.00,Wunderground v.1.15,2013-09-09 20:38:00,
2013-09-09 16:44:00,73.6,58.4,30.00,NNW,347,0.0,0.0,59,0.00,,,0.00,Wunderground v.1.15,2013-09-09 20:44:00,
2013-09-09 16:49:00,74.0,59.7,30.00,NNW,347,0.0,0.0,61,0.00,,,0.00,Wunderground v.1.15,2013-09-09 20:49:00,
2013-09-09 16:54:00,74.2,58.9,30.00,NNE,27,0.0,0.0,59,0.00,,,0.00,Wunderground v.1.15,2013-09-09 20:54:00,
2013-09-09 16:59:00,74.3,59.0,30.00,WSW,249,0.0,1.0,59,0.00,,,0.00,Wunderground v.1.15,2013-09-09 20:59:00,
2013-09-09 17:04:00,74.5,59.2,30.00,SW,224,0.0,0.0,59,0.00,,,0.00,Wunderground v.1.15,2013-09-09 21:04:00,
2013-09-09 17:10:00,74.6,59.8,29.99,SW,223,0.0,0.0,60,0.00,,,0.00,Wunderground v.1.15,2013-09-09 21:10:00,
2013-09-09 17:16:00,74.6,59.3,30.00,SSW,193,0.0,0.0,59,0.00,,,0.00,Wunderground v.1.15,2013-09-09 21:16:00,
2013-09-09 17:21:00,74.5,59.2,30.00,SSE,159,0.0,0.0,59,0.00,,,0.00,Wunderground v.1.15,2013-09-09 21:21:00,
2013-09-09 17:27:00,74.1,59.3,30.00,SSE,159,0.0,0.0,60,0.00,,,0.00,Wunderground v.1.15,2013-09-09 21:27:00,
2013-09-09 17:33:00,74.0,59.2,30.00,SSE,159,0.0,0.0,60,0.00,,,0.00,Wunderground v.1.15,2013-09-09 21:33:00,
2013-09-09 17:38:00,73.8,59.0,29.99,SSE,159,0.0,0.0,60,0.00,,,0.00,Wunderground v.1.15,2013-09-09 21:38:00,
2013-09-09 17:44:00,73.7,59.4,29.99,SSE,159,0.0,0.0,61,0.00,,,0.00,Wunderground v.1.15,2013-09-09 21:44:00,
2013-09-09 17:49:00,73.3,59.0,29.99,SSE,165,0.0,1.0,61,0.00,,,0.00,Wunderground v.1.15,2013-09-09 21:49:00,
2013-09-09 17:54:00,73.0,59.2,29.99,SSE,167,0.0,0.0,62,0.00,,,0.00,Wunderground v.1.15,2013-09-09 21:54:00,
2013-09-09 18:00:00,73.0,59.7,29.99,South,169,0.0,0.0,63,0.00,,,0.00,Wunderground v.1.15,2013-09-09 22:00:00,
2013-09-09 18:05:00,72.9,59.6,29.99,SSW,197,0.0,0.0,63,0.00,,,0.00,Wunderground v.1.15,2013-09-09 22:05:00,
2013-09-09 18:11:00,72.8,59.5,29.99,SW,221,0.0,0.0,63,0.00,,,0.00,Wunderground v.1.15,2013-09-09 22:11:00,
2013-09-09 18:16:00,72.7,59.4,29.99,SE,138,0.0,0.0,63,0.00,,,0.00,Wunderground v.1.15,2013-09-09 22:16:00,
2013-09-09 18:22:00,72.8,59.5,29.99,SW,225,0.0,0.0,63,0.00,,,0.00,Wunderground v.1.15,2013-09-09 22:22:00,
2013-09-09 18:28:00,72.9,60.0,29.99,SW,225,0.0,0.0,64,0.00,,,0.00,Wunderground v.1.15,2013-09-09 22:28:00,
2013-09-09 18:33:00,72.8,59.5,29.99,SSW,212,0.0,0.0,63,0.00,,,0.00,Wunderground v.1.15,2013-09-09 22:33:00,
2013-09-09 18:38:00,72.7,59.8,29.99,South,176,0.0,0.0,64,0.00,,,0.00,Wunderground v.1.15,2013-09-09 22:38:00,
2013-09-09 18:43:00,72.6,60.2,29.99,SSE,150,0.0,0.0,65,0.00,,,0.00,Wunderground v.1.15,2013-09-09 22:43:00,
2013-09-09 18:49:00,72.4,60.0,29.99,SSW,208,0.0,0.0,65,0.00,,,0.00,Wunderground v.1.15,2013-09-09 22:49:00,
2013-09-09 18:54:00,72.3,59.9,29.99,SSE,156,0.0,1.0,65,0.00,,,0.00,Wunderground v.1.15,2013-09-09 22:54:00,
2013-09-09 19:00:00,72.2,59.8,29.99,SSE,156,0.0,0.0,65,0.00,,,0.00,Wunderground v.1.15,2013-09-09 23:00:00,
2013-09-09 19:05:00,72.1,60.1,29.98,SSE,161,0.0,0.0,66,0.00,,,0.00,Wunderground v.1.15,2013-09-09 23:05:00,
2013-09-09 19:11:00,71.9,59.9,29.98,SSE,154,0.0,2.0,66,0.00,,,0.00,Wunderground v.1.15,2013-09-09 23:11:00,
2013-09-09 19:16:00,71.7,59.7,29.98,SE,136,0.0,2.0,66,0.00,,,0.00,Wunderground v.1.15,2013-09-09 23:16:00,
2013-09-09 19:22:00,71.5,60.0,29.98,SE,136,0.0,1.0,67,0.00,,,0.00,Wunderground v.1.15,2013-09-09 23:22:00,
2013-09-09 19:28:00,71.3,60.2,29.98,SSW,203,0.0,1.0,68,0.00,,,0.00,Wunderground v.1.15,2013-09-09 23:28:00,
2013-09-09 19:34:00,71.2,60.1,29.98,South,181,0.0,0.0,68,0.00,,,0.00,Wunderground v.1.15,2013-09-09 23:34:00,
2013-09-09 19:39:00,71.1,60.0,29.98,SSW,198,0.0,1.0,68,0.00,,,0.00,Wunderground v.1.15,2013-09-09 23:39:00,
2013-09-09 19:44:00,70.9,59.8,29.99,SSW,210,0.0,0.0,68,0.00,,,0.00,Wunderground v.1.15,2013-09-09 23:44:00,
2013-09-09 19:49:00,70.8,59.7,29.98,SSE,148,0.0,1.0,68,0.00,,,0.00,Wunderground v.1.15,2013-09-09 23:49:00,
2013-09-09 19:55:00,70.6,59.5,29.98,SE,144,0.0,1.0,68,0.00,,,0.00,Wunderground v.1.15,2013-09-09 23:55:00,
2013-09-09 20:00:00,70.5,59.4,29.98,SSE,153,0.0,1.0,68,0.00,,,0.00,Wunderground v.1.15,2013-09-10 00:00:00,
2013-09-09 20:06:00,70.3,59.6,29.97,SSW,205,1.0,2.0,69,0.00,,,0.00,Wunderground v.1.15,2013-09-10 00:06:00,
2013-09-09 20:11:00,70.2,59.6,29.97,SSE,152,0.0,0.0,69,0.00,,,0.00,Wunderground v.1.15,2013-09-10 00:11:00,
2013-09-09 20:17:00,70.1,59.5,29.97,SSE,163,0.0,1.0,69,0.00,,,0.00,Wunderground v.1.15,2013-09-10 00:17:00,
2013-09-09 20:23:00,69.9,59.3,29.97,SSE,167,0.0,2.0,69,0.00,,,0.00,Wunderground v.1.15,2013-09-10 00:23:00,
2013-09-09 20:29:00,69.7,59.5,29.97,SE,136,1.0,2.0,70,0.00,,,0.00,Wunderground v.1.15,2013-09-10 00:29:00,
2013-09-09 20:34:00,69.6,59.4,29.97,South,174,1.0,3.0,70,0.00,,,0.00,Wunderground v.1.15,2013-09-10 00:34:00,
2013-09-09 20:39:00,69.3,59.5,29.97,South,172,1.0,3.0,71,0.00,,,0.00,Wunderground v.1.15,2013-09-10 00:39:00,
2013-09-09 20:44:00,69.1,59.7,29.98,SSE,153,0.0,2.0,72,0.00,,,0.00,Wunderground v.1.15,2013-09-10 00:44:00,
2013-09-09 20:49:00,68.9,59.9,29.98,SSW,205,0.0,2.0,73,0.00,,,0.00,Wunderground v.1.15,2013-09-10 00:49:00,
2013-09-09 20:54:00,68.6,60.0,29.99,SSE,156,0.0,0.0,74,0.00,,,0.00,Wunderground v.1.15,2013-09-10 00:54:00,
2013-09-09 21:00:00,68.4,60.5,29.99,South,184,0.0,0.0,76,0.00,,,0.00,Wunderground v.1.15,2013-09-10 01:00:00,
2013-09-09 21:06:00,68.3,61.2,29.98,SSW,200,0.0,1.0,78,0.00,,,0.00,Wunderground v.1.15,2013-09-10 01:06:00,
2013-09-09 21:11:00,68.4,62.0,29.98,SSE,148,0.0,1.0,80,0.00,,,0.00,Wunderground v.1.15,2013-09-10 01:11:00,
2013-09-09 21:17:00,68.6,62.5,29.98,South,181,1.0,2.0,81,0.00,,,0.00,Wunderground v.1.15,2013-09-10 01:17:00,
2013-09-09 21:22:00,68.9,63.2,29.98,SE,145,2.0,2.0,82,0.00,,,0.00,Wunderground v.1.15,2013-09-10 01:22:00,
2013-09-09 21:28:00,69.1,63.7,29.98,SSE,167,1.0,5.0,83,0.00,,,0.00,Wunderground v.1.15,2013-09-10 01:28:00,
2013-09-09 21:34:00,69.2,63.8,29.98,SSW,195,2.0,2.0,83,0.00,,,0.00,Wunderground v.1.15,2013-09-10 01:34:00,
2013-09-09 21:40:00,69.2,63.8,29.98,South,187,1.0,1.0,83,0.00,,,0.00,Wunderground v.1.15,2013-09-10 01:40:00,
2013-09-09 21:45:00,69.2,63.8,29.99,SSE,152,1.0,5.0,83,0.00,,,0.00,Wunderground v.1.15,2013-09-10 01:45:00,
2013-09-09 21:51:00,69.2,63.8,29.98,South,169,2.0,3.0,83,0.00,,,0.00,Wunderground v.1.15,2013-09-10 01:51:00,
2013-09-09 21:57:00,69.2,64.2,29.97,SSW,197,2.0,9.0,84,0.00,,,0.00,Wunderground v.1.15,2013-09-10 01:57:00,
2013-09-09 22:02:00,69.2,64.2,29.98,South,169,3.0,6.0,84,0.00,,,0.00,Wunderground v.1.15,2013-09-10 02:02:00,
2013-09-09 22:07:00,69.2,64.2,29.98,SSE,161,3.0,6.0,84,0.00,,,0.00,Wunderground v.1.15,2013-09-10 02:07:00,
2013-09-09 22:13:00,69.2,64.2,29.97,SSW,207,2.0,3.0,84,0.00,,,0.00,Wunderground v.1.15,2013-09-10 02:13:00,
2013-09-09 22:18:00,69.1,64.1,29.97,SSW,198,2.0,3.0,84,0.00,,,0.00,Wunderground v.1.15,2013-09-10 02:18:00,
2013-09-09 22:24:00,69.2,64.2,29.96,SSW,198,2.0,4.0,84,0.00,,,0.00,Wunderground v.1.15,2013-09-10 02:24:00,
2013-09-09 22:29:00,69.2,64.2,29.97,SSW,212,2.0,4.0,84,0.00,,,0.00,Wunderground v.1.15,2013-09-10 02:29:00,
2013-09-09 22:34:00,69.1,64.1,29.96,SW,231,2.0,5.0,84,0.00,,,0.00,Wunderground v.1.15,2013-09-10 02:34:00,
2013-09-09 22:39:00,69.1,64.4,29.95,SSE,149,3.0,5.0,85,0.00,,,0.00,Wunderground v.1.15,2013-09-10 02:39:00,
2013-09-09 22:44:00,69.1,64.4,29.95,SSE,155,3.0,4.0,85,0.00,,,0.00,Wunderground v.1.15,2013-09-10 02:44:00,
2013-09-09 22:49:00,69.0,64.3,29.95,SE,124,3.0,4.0,85,0.00,,,0.00,Wunderground v.1.15,2013-09-10 02:49:00,
2013-09-09 22:55:00,69.1,64.4,29.95,SSE,152,3.0,6.0,85,0.00,,,0.00,Wunderground v.1.15,2013-09-10 02:55:00,
2013-09-09 23:00:00,69.2,64.5,29.94,SSE,148,3.0,4.0,85,0.00,,,0.00,Wunderground v.1.15,2013-09-10 03:00:00,
2013-09-09 23:06:00,69.2,64.5,29.94,SSW,205,3.0,7.0,85,0.00,,,0.00,Wunderground v.1.15,2013-09-10 03:06:00,
2013-09-09 23:12:00,69.4,64.4,29.94,SE,146,4.0,7.0,84,0.00,,,0.00,Wunderground v.1.15,2013-09-10 03:12:00,
2013-09-09 23:18:00,69.5,64.5,29.94,SE,145,3.0,7.0,84,0.00,,,0.00,Wunderground v.1.15,2013-09-10 03:18:00,
2013-09-09 23:24:00,69.7,64.6,29.95,SW,221,3.0,5.0,84,0.00,,,0.00,Wunderground v.1.15,2013-09-10 03:24:00,
2013-09-09 23:29:00,69.7,64.6,29.95,SW,228,2.0,3.0,84,0.00,,,0.00,Wunderground v.1.15,2013-09-10 03:29:00,
2013-09-09 23:35:00,69.7,64.6,29.94,East,101,2.0,6.0,84,0.00,,,0.00,Wunderground v.1.15,2013-09-10 03:35:00,
2013-09-09 23:41:00,69.9,64.8,29.94,SE,146,3.0,3.0,84,0.00,,,0.00,Wunderground v.1.15,2013-09-10 03:41:00,
2013-09-09 23:46:00,70.0,64.9,29.94,SE,134,3.0,5.0,84,0.00,,,0.00,Wunderground v.1.15,2013-09-10 03:46:00,
2013-09-09 23:52:00,70.1,65.0,29.93,SSW,200,3.0,5.0,84,0.00,,,0.00,Wunderground v.1.15,2013-09-10 03:52:00,
2013-09-09 23:57:00,70.2,65.1,29.93,ESE,113,4.0,10.0,84,0.00,,,0.00,Wunderground v.1.15,2013-09-10 03:57:00,